Gilze-Rijen, Netherlands

1:07 PM CEST on May 29, 2017 (GMT +0200)
Gilze-Rijen Air Base

Weather History for EHGR - March, 2014

Change the Weather History Date:

Thursday, March 13, 2014

  Actual Average Record
Temperature  
Mean Temperature 48 °F -  
Max Temperature 63 °F 52 °F 63 °F (2014)
Min Temperature 32 °F 37 °F 15 °F (2013)
Degree Days  
Heating Degree Days 18    
Moisture  
Dew Point 39 °F    
Average Humidity 78    
Maximum Humidity 100    
Minimum Humidity 33    
Precipitation  
Precipitation 0.00 in - - ()
Sea Level Pressure  
Sea Level Pressure 30.37 in    
Wind  
Wind Speed 2 mph ()    
Max Wind Speed 9 mph    
Max Gust Speed -    
Visibility 3.2 miles    
Events Fog    
Averages and records for this station are not official NWS values.
T = Trace of Precipitation, MM = Missing Value Source: Averaged Metar Reports

Daily Weather History Graph

Daily Weather History Graph

Search for Another Location

Airport or City:

Trip Planner

Search our weather history database for the weather conditions in past years. The results will help you decide how hot, cold, wet, or windy it might be!

Date:

Astronomy

Mar. 13, 2014 Rise Set
Actual Time 6:59 AM CET 6:41 PM CET
Civil Twilight 6:26 AM CET 7:14 PM CET
Nautical Twilight 5:47 AM CET 7:53 PM CET
Astronomical Twilight 5:07 AM CET 8:33 PM CET
Moon 3:36 PM CET (3/13) 5:14 AM CET (3/13)
Length of Visible Light 12h 48m
Length of Day
11h 41m
Waxing Gibbous, 90% of the Moon is Illuminated
Mar 13
Waxing Gibbous
Mar 16
Full
Mar 24
Last Quarter
Mar 30
New
Apr 7
First Quarter

Hourly Weather History & Observations

Time (CET) Temp. Windchill Dew Point Humidity Pressure Visibility Wind Dir Wind Speed Gust Speed Precip Events Conditions
12:00 AM 40 °F - 40 °F 100% 30.41 in 2 mi Calm Calm - -   Mist
12:25 AM 39.2 °F - 39.2 °F 100% 30.39 in 1.9 mi NE 2.3 mph - N/A   Mist
12:30 AM 39.2 °F - 39.2 °F 100% 30.39 in - ENE 2.3 mph - N/A   Mist
12:39 AM 39.2 °F - 39.2 °F 100% 30.39 in 1.9 mi ENE 2.3 mph - N/A   Mist
12:55 AM 39.2 °F - 37.4 °F 93% 30.39 in 1.9 mi NE 2.3 mph - N/A   Mist
1:00 AM 38 °F - 38 °F 99% 30.40 in 2 mi NE 2.2 mph - -   Mist
1:25 AM 37.4 °F - 37.4 °F 100% 30.39 in 1.7 mi NNE 1.2 mph - N/A   Scattered Clouds
1:55 AM 39.2 °F - 37.4 °F 93% 30.39 in - NNE 1.2 mph - N/A   Partly Cloudy
2:00 AM 38 °F - 38 °F 100% 30.39 in 1 mi NE 2.2 mph - -   Mist
2:25 AM 37.4 °F - 37.4 °F 100% 30.36 in 1.8 mi NE 1.2 mph - N/A   Mist
2:46 AM 35.6 °F - 35.6 °F 100% 30.36 in 0.7 mi NE 1.2 mph - N/A   Mist
2:55 AM 35.6 °F - 35.6 °F 100% 30.36 in 0.3 mi NE 1.2 mph - N/A Fog Fog
2:59 AM 35.6 °F - 35.6 °F 100% 30.36 in 0.7 mi NE 1.2 mph - N/A   Mist
3:00 AM 36 °F - 36 °F 99% 30.38 in 0 mi Calm Calm - - Fog Fog
3:03 AM 35.6 °F - 35.6 °F 100% 30.36 in 1.2 mi NE 1.2 mph - N/A   Mist
3:13 AM 35.6 °F - 35.6 °F 100% 30.36 in 1.4 mi NE 1.2 mph - N/A   Partly Cloudy
3:20 AM 35.6 °F - 35.6 °F 100% 30.36 in 0.8 mi NNE 1.2 mph - N/A   Partly Cloudy
3:25 AM 35.6 °F - 35.6 °F 100% 30.36 in 1.1 mi North 1.2 mph - N/A   Mist
3:35 AM 35.6 °F - 35.6 °F 100% 30.36 in 1.4 mi North 1.2 mph - N/A   Partly Cloudy
3:55 AM 35.6 °F - 35.6 °F 100% 30.36 in 1.2 mi NE 2.3 mph - N/A   Mist
4:00 AM 35 °F - 35 °F 100% 30.38 in 0 mi NE 2.2 mph - - Fog Fog
4:01 AM 35.6 °F - 35.6 °F 100% 30.36 in 0.9 mi NE 2.3 mph - N/A   Mist
4:05 AM 35.6 °F - 35.6 °F 100% 30.36 in 1.0 mi NE 2.3 mph - N/A   Mist
4:13 AM 35.6 °F - 35.6 °F 100% 30.36 in 3.1 mi NE 1.2 mph - N/A   Mist
4:14 AM 35.6 °F - 35.6 °F 100% 30.36 in - ENE 1.2 mph - N/A   Mist
4:25 AM 35.6 °F - 35.6 °F 100% 30.36 in - NE 2.3 mph - N/A   Mist
4:29 AM 35.6 °F - 35.6 °F 100% 30.36 in 1.5 mi ENE 2.3 mph - N/A   Mist
4:42 AM 35.6 °F - 35.6 °F 100% 30.36 in 1.3 mi ENE 1.2 mph - N/A   Partly Cloudy
4:46 AM 35.6 °F - 35.6 °F 100% 30.36 in 0.9 mi ENE 1.2 mph - N/A   Scattered Clouds
4:50 AM 35.6 °F - 35.6 °F 100% 30.36 in 1.8 mi ENE 1.2 mph - N/A   Scattered Clouds
4:55 AM 35.6 °F - 33.8 °F 93% 30.36 in 1.7 mi NE 1.2 mph - N/A   Mist
5:00 AM 34 °F - 34 °F 100% 30.38 in 1 mi NE 2.2 mph - - Fog Fog
5:08 AM 33.8 °F - 33.8 °F 100% 30.36 in 1.6 mi NE 1.2 mph - N/A   Mist
5:25 AM 33.8 °F - 33.8 °F 100% 30.36 in 1.1 mi NE 1.2 mph - N/A   Mist
5:55 AM 33.8 °F - 33.8 °F 100% 30.36 in 1.5 mi North 1.2 mph - N/A   Mist
6:00 AM 34 °F - 33 °F 96% 30.38 in 1 mi North 2.2 mph - -   Mist
6:25 AM 33.8 °F - 32.0 °F 93% 30.36 in 1.9 mi East 1.2 mph - N/A   Mist
6:36 AM 33.8 °F - 33.8 °F 100% 30.36 in 0.9 mi East 1.2 mph - N/A   Mist
6:37 AM 33.8 °F - 33.8 °F 100% 30.36 in 1.4 mi East 1.2 mph - N/A   Mist
6:48 AM 33.8 °F - 33.8 °F 100% 30.36 in 0.6 mi East 1.2 mph - N/A   Partly Cloudy
6:55 AM 33.8 °F - 32.0 °F 93% 30.36 in 0.6 mi Calm Calm - N/A Fog Fog
7:00 AM 33 °F - 33 °F 97% 30.38 in 0 mi Calm Calm - - Fog Fog
7:01 AM 32.0 °F - 32.0 °F 100% 30.36 in 1.4 mi SSE 1.2 mph - N/A   Partly Cloudy
7:15 AM 32.0 °F - 32.0 °F 100% 30.36 in 1.1 mi Calm Calm - N/A   Scattered Clouds
7:25 AM 32.0 °F - 32.0 °F 100% 30.36 in 1.6 mi Calm Calm - N/A   Partly Cloudy
7:55 AM - - - N/A% 0.00 in - North - - N/A   Unknown
8:00 AM - - - %  in - Calm Calm - -  
8:25 AM - - - N/A% 0.00 in - North - - N/A   Unknown
8:55 AM - - - N/A% 0.00 in - North - - N/A   Unknown
9:00 AM - - - %  in - Calm Calm - -  
9:25 AM 46.4 °F - 42.8 °F 87% 30.39 in 3.1 mi Calm Calm - N/A   Partly Cloudy
9:55 AM 50.0 °F - 42.8 °F 76% 30.39 in 3.1 mi SSW 1.2 mph - N/A   Haze
10:00 AM 51 °F - 43 °F 66% 30.40 in 4 mi SSW 2.2 mph - -   Light Haze
10:25 AM 55.4 °F - 42.8 °F 63% 30.39 in 3.7 mi SSW 1.2 mph - N/A   Haze
10:55 AM 57.2 °F - 42.8 °F 59% 30.39 in 4.3 mi NNE 2.3 mph - N/A   Haze
10:56 AM 57.2 °F - 42.8 °F 59% 30.39 in 5.0 mi NNE 2.3 mph - N/A   Haze
11:00 AM 58 °F - 43 °F 47% 30.40 in 5 mi NNE 2.2 mph - -   Light Haze
11:13 AM 59.0 °F - 42.8 °F 55% 30.39 in 5.0 mi NNE 3.5 mph - N/A   Haze
11:25 AM 59.0 °F - 44.6 °F 59% 30.39 in 5.6 mi NNE 3.5 mph - N/A   Haze
11:55 AM 60.8 °F - 41.0 °F 48% 30.39 in 5.6 mi North 4.6 mph - N/A   Haze
12:00 PM 61 °F - 42 °F 37% 30.40 in 6 mi North 4.5 mph - -   Light Haze
12:25 PM 60.8 °F - 39.2 °F 45% 30.39 in 5.6 mi NE 4.6 mph - N/A   Haze
12:55 PM 62.6 °F - 39.2 °F 42% 30.39 in 5.6 mi NE 4.6 mph - N/A   Haze
1:00 PM 62 °F - 40 °F 33% 30.39 in 6 mi North 4.5 mph - -   Light Haze
1:25 PM 62.6 °F - 39.2 °F 42% 30.36 in 5.6 mi North 4.6 mph - N/A   Haze
1:55 PM 62.6 °F - 41.0 °F 45% 30.36 in 5.0 mi NE 4.6 mph - N/A   Haze
2:00 PM 63 °F - 42 °F 34% 30.38 in 5 mi NE 4.5 mph - -   Light Haze
2:25 PM 62.6 °F - 41.0 °F 45% 30.36 in 5.0 mi NNE 4.6 mph - N/A   Haze
2:55 PM 62.6 °F - 41.0 °F 45% 30.36 in 5.6 mi NNE 5.8 mph - N/A   Haze
3:00 PM 63 °F - 41 °F 33% 30.36 in 6 mi NNE 6.7 mph - -   Light Haze
3:25 PM 62.6 °F - 42.8 °F 48% 30.36 in 5.6 mi NNE 6.9 mph - N/A   Haze
3:55 PM 62.6 °F - 42.8 °F 48% 30.33 in 5.0 mi NNE 6.9 mph - N/A   Haze
4:00 PM 63 °F - 43 °F 36% 30.36 in 5 mi NNE 6.7 mph - -   Light Haze
4:25 PM 62.6 °F - 41.0 °F 45% 30.33 in 5.0 mi North 6.9 mph - N/A   Haze
4:55 PM 60.8 °F - 41.0 °F 48% 30.33 in 5.0 mi North 8.1 mph - N/A   Haze
5:00 PM 61 °F - 42 °F 39% 30.36 in 5 mi North 8.9 mph - -   Light Haze
5:25 PM 60.8 °F - 42.8 °F 52% 30.33 in 5.0 mi North 8.1 mph - N/A   Haze
5:55 PM 59.0 °F - 42.8 °F 55% 30.33 in 5.0 mi North 6.9 mph - N/A   Haze
6:00 PM 58 °F - 43 °F 47% 30.36 in 5 mi North 6.7 mph - -   Light Haze
6:12 PM 57.2 °F - 42.8 °F 59% 30.33 in 4.3 mi NNE 5.8 mph - N/A   Haze
6:25 PM 55.4 °F - 42.8 °F 63% 30.33 in 4.3 mi North 4.6 mph - N/A   Haze
6:55 PM 53.6 °F - 42.8 °F 67% 30.36 in 4.3 mi North 3.5 mph - N/A   Haze
6:59 PM 51.8 °F - 42.8 °F 71% 30.36 in 4.3 mi North 4.6 mph - N/A   Haze
7:00 PM 51 °F - 42 °F 64% 30.37 in 4 mi North 4.5 mph - -   Light Haze
7:15 PM 55.4 °F - 44.6 °F 67% 30.36 in 3.7 mi NNW 4.6 mph - N/A   Haze
7:25 PM 53.6 °F - 42.8 °F 67% 30.36 in 3.7 mi NNW 4.6 mph - N/A   Haze
7:55 PM 51.8 °F - 42.8 °F 71% 30.36 in 3.7 mi NNW 5.8 mph - N/A   Haze
8:00 PM 51 °F - 43 °F 66% 30.38 in 4 mi North 6.7 mph - -   Light Haze
8:25 PM 51.8 °F - 44.6 °F 76% 30.36 in 3.1 mi North 6.9 mph - N/A   Haze
8:55 PM 48.2 °F - 42.8 °F 82% 30.39 in 3.1 mi NNE 4.6 mph - N/A   Haze
9:00 PM 49 °F - 44 °F 76% 30.40 in 3 mi NNE 4.5 mph - -   Light Haze
9:25 PM 46.4 °F 44.3 °F 42.8 °F 87% 30.39 in 3.1 mi NNE 4.6 mph - N/A   Partly Cloudy
9:30 PM 46.4 °F 43.5 °F 41.0 °F 81% 30.39 in 3.1 mi NNE 5.8 mph - N/A   Partly Cloudy
9:55 PM 44.6 °F 40.2 °F 39.2 °F 81% 30.39 in 5.0 mi NNE 8.1 mph - N/A   Partly Cloudy
10:00 PM 45 °F - 40 °F 77% 30.40 in 6 mi NNE 6.7 mph - -   Mist
10:09 PM 44.6 °F 40.7 °F 39.2 °F 81% 30.39 in 6.2 mi NNE 6.9 mph - N/A   Unknown
10:25 PM 44.6 °F 40.2 °F 39.2 °F 81% 30.39 in 5.6 mi NNE 8.1 mph - N/A   Mist
10:55 PM 44.6 °F 40.7 °F 39.2 °F 81% 30.39 in 6.2 mi NNE 6.9 mph - N/A   Unknown
11:00 PM 42 °F - 37 °F 77% 30.41 in 6 mi NNE 6.7 mph - -  
11:25 PM 42.8 °F 39.3 °F 37.4 °F 81% 30.39 in 6.2 mi NNE 5.8 mph - N/A   Unknown
11:55 PM 41.0 °F 37.1 °F 35.6 °F 81% 30.39 in 5.6 mi NNE 5.8 mph - N/A   Partly Cloudy